TimeEST,TemperatureF,Dew PointF,Humidity,Sea Level PressureIn,VisibilityMPH,Wind Direction,Wind SpeedMPH,Gust SpeedMPH,PrecipitationIn,Events,Conditions,WindDirDegrees,DateUTC
12:15 AM,44.6,35.6,71,30.36,7.0,NE,13.8,-,N/A,,Clear,50,2013-12-25 05:15:00
12:35 AM,44.6,33.8,66,30.36,7.0,NE,16.1,24.2,N/A,,Clear,50,2013-12-25 05:35:00
12:55 AM,44.6,33.8,66,30.36,7.0,NE,16.1,25.3,N/A,,Clear,50,2013-12-25 05:55:00
1:15 AM,44.6,33.8,66,30.36,7.0,NE,16.1,20.7,N/A,,Clear,40,2013-12-25 06:15:00
1:35 AM,44.6,33.8,66,30.36,7.0,NE,19.6,23.0,N/A,,Clear,40,2013-12-25 06:35:00
1:55 AM,42.8,33.8,70,30.37,7.0,NE,13.8,-,N/A,,Clear,40,2013-12-25 06:55:00
2:15 AM,42.8,33.8,70,30.38,7.0,NNE,18.4,-,N/A,,Clear,30,2013-12-25 07:15:00
2:35 AM,42.8,33.8,70,30.38,7.0,NNE,13.8,-,N/A,,Clear,30,2013-12-25 07:35:00
2:55 AM,42.8,32.0,66,30.38,7.0,NE,12.7,-,N/A,,Clear,40,2013-12-25 07:55:00
3:15 AM,41.0,32.0,70,30.39,7.0,NNE,18.4,-,N/A,,Clear,30,2013-12-25 08:15:00
3:35 AM,41.0,32.0,70,30.39,7.0,NNE,18.4,-,N/A,,Clear,30,2013-12-25 08:35:00
3:55 AM,41.0,32.0,70,30.39,7.0,NNE,18.4,-,N/A,,Clear,30,2013-12-25 08:55:00
4:15 AM,41.0,32.0,70,30.39,7.0,NNE,16.1,19.6,N/A,,Clear,30,2013-12-25 09:15:00
4:35 AM,39.2,32.0,75,30.40,7.0,NNE,18.4,-,N/A,,Clear,20,2013-12-25 09:35:00
4:55 AM,39.2,32.0,75,30.39,7.0,NNE,13.8,-,N/A,,Clear,20,2013-12-25 09:55:00
5:15 AM,37.4,32.0,81,30.40,7.0,NNE,18.4,-,N/A,,Clear,30,2013-12-25 10:15:00
5:35 AM,37.4,32.0,81,30.40,7.0,NNE,16.1,19.6,N/A,,Clear,20,2013-12-25 10:35:00
5:55 AM,37.4,32.0,81,30.41,5.0,NNE,12.7,-,N/A,,Haze,20,2013-12-25 10:55:00
6:15 AM,35.6,30.2,81,30.41,7.0,NNE,15.0,-,N/A,,Clear,20,2013-12-25 11:15:00
6:35 AM,35.6,30.2,81,30.41,5.0,NNE,16.1,-,N/A,,Haze,20,2013-12-25 11:35:00
6:55 AM,35.6,30.2,81,30.42,7.0,NNE,16.1,-,N/A,,Clear,20,2013-12-25 11:55:00
7:15 AM,35.6,30.2,81,30.43,7.0,NNE,15.0,-,N/A,,Clear,20,2013-12-25 12:15:00
7:35 AM,35.6,28.4,75,30.43,7.0,NNE,17.3,21.9,N/A,,Clear,20,2013-12-25 12:35:00
7:55 AM,35.6,28.4,75,30.44,5.0,NNE,16.1,23.0,N/A,,Haze,20,2013-12-25 12:55:00
8:15 AM,35.6,28.4,75,30.44,5.0,NNE,17.3,-,N/A,,Haze,20,2013-12-25 13:15:00
8:35 AM,35.6,28.4,75,30.45,5.0,NNE,17.3,20.7,N/A,,Haze,20,2013-12-25 13:35:00
8:55 AM,37.4,30.2,75,30.45,5.0,NNE,13.8,18.4,N/A,,Haze,30,2013-12-25 13:55:00
9:15 AM,37.4,30.2,75,30.45,5.0,NNE,13.8,-,N/A,,Haze,20,2013-12-25 14:15:00
9:35 AM,39.2,30.2,70,30.45,7.0,NNE,15.0,21.9,N/A,,Clear,20,2013-12-25 14:35:00
9:55 AM,41.0,32.0,70,30.46,5.0,NNE,13.8,20.7,N/A,,Haze,30,2013-12-25 14:55:00
10:15 AM,41.0,32.0,70,30.45,7.0,NNE,15.0,20.7,N/A,,Clear,30,2013-12-25 15:15:00
10:35 AM,42.8,32.0,66,30.45,5.0,North,16.1,-,N/A,,Haze,10,2013-12-25 15:35:00
10:55 AM,42.8,32.0,66,30.45,5.0,NNE,13.8,18.4,N/A,,Haze,20,2013-12-25 15:55:00
11:15 AM,42.8,32.0,66,30.44,7.0,North,15.0,21.9,N/A,,Clear,10,2013-12-25 16:15:00
11:35 AM,44.6,32.0,61,30.44,5.0,NNE,15.0,-,N/A,,Haze,20,2013-12-25 16:35:00
11:55 AM,46.4,33.8,62,30.42,5.0,North,15.0,-,N/A,,Haze,360,2013-12-25 16:55:00
12:15 PM,46.4,33.8,62,30.40,5.0,North,15.0,-,N/A,,Haze,10,2013-12-25 17:15:00
12:35 PM,48.2,33.8,58,30.39,5.0,NNE,11.5,17.3,N/A,,Haze,20,2013-12-25 17:35:00
12:55 PM,50.0,33.8,54,30.39,7.0,NNE,13.8,-,N/A,,Clear,20,2013-12-25 17:55:00
1:15 PM,50.0,35.6,58,30.37,7.0,NNE,15.0,18.4,N/A,,Clear,20,2013-12-25 18:15:00
1:35 PM,50.0,35.6,58,30.36,7.0,NNE,9.2,16.1,N/A,,Clear,20,2013-12-25 18:35:00
1:55 PM,50.0,35.6,58,30.36,5.0,North,11.5,-,N/A,,Haze,10,2013-12-25 18:55:00
2:15 PM,51.8,35.6,54,30.36,7.0,North,11.5,-,N/A,,Clear,10,2013-12-25 19:15:00
2:35 PM,51.8,35.6,54,30.35,4.0,NE,11.5,-,N/A,,Haze,40,2013-12-25 19:35:00
2:55 PM,51.8,35.6,54,30.35,5.0,NNE,9.2,-,N/A,,Haze,20,2013-12-25 19:55:00
3:15 PM,51.8,35.6,54,30.35,7.0,North,8.1,-,N/A,,Clear,10,2013-12-25 20:15:00
3:35 PM,51.8,37.4,58,30.35,7.0,NNE,10.4,-,N/A,,Clear,30,2013-12-25 20:35:00
3:55 PM,51.8,35.6,54,30.36,7.0,North,10.4,-,N/A,,Clear,10,2013-12-25 20:55:00
4:15 PM,50.0,37.4,62,30.36,7.0,North,8.1,-,N/A,,Clear,10,2013-12-25 21:15:00
4:35 PM,50.0,37.4,62,30.37,5.0,North,9.2,-,N/A,,Haze,10,2013-12-25 21:35:00
4:55 PM,50.0,37.4,62,30.36,5.0,North,8.1,-,N/A,,Haze,10,2013-12-25 21:55:00
5:15 PM,48.2,37.4,66,30.36,7.0,North,8.1,-,N/A,,Scattered Clouds,10,2013-12-25 22:15:00
5:35 PM,48.2,37.4,66,30.37,5.0,North,6.9,-,N/A,,Haze,10,2013-12-25 22:35:00
5:55 PM,48.2,37.4,66,30.37,7.0,North,8.1,-,N/A,,Overcast,360,2013-12-25 22:55:00
6:15 PM,46.4,37.4,71,30.37,7.0,NNE,8.1,-,N/A,,Mostly Cloudy,20,2013-12-25 23:15:00
6:35 PM,46.4,37.4,71,30.37,7.0,NNE,9.2,-,N/A,,Mostly Cloudy,20,2013-12-25 23:35:00
6:55 PM,46.4,37.4,71,30.36,10.0,NNE,11.5,-,N/A,,Overcast,30,2013-12-25 23:55:00
7:15 PM,46.4,35.6,66,30.36,7.0,NNE,10.4,-,N/A,,Overcast,30,2013-12-26 00:15:00
7:35 PM,46.4,35.6,66,30.37,7.0,NNE,11.5,-,N/A,,Overcast,20,2013-12-26 00:35:00
7:55 PM,44.6,35.6,71,30.36,7.0,NNE,10.4,-,N/A,,Scattered Clouds,20,2013-12-26 00:55:00
8:15 PM,44.6,35.6,71,30.37,7.0,NNE,9.2,-,N/A,,Mostly Cloudy,20,2013-12-26 01:15:00
8:35 PM,44.6,33.8,66,30.37,10.0,NNE,9.2,-,N/A,,Mostly Cloudy,20,2013-12-26 01:35:00
8:55 PM,44.6,33.8,66,30.37,7.0,North,9.2,-,N/A,,Scattered Clouds,360,2013-12-26 01:55:00
9:15 PM,44.6,33.8,66,30.36,7.0,NNE,10.4,-,N/A,,Mostly Cloudy,20,2013-12-26 02:15:00
9:35 PM,44.6,33.8,66,30.36,7.0,North,10.4,-,N/A,,Overcast,10,2013-12-26 02:35:00
9:55 PM,44.6,35.6,71,30.36,7.0,NE,8.1,-,N/A,,Overcast,40,2013-12-26 02:55:00
10:15 PM,44.6,35.6,71,30.35,7.0,NNE,12.7,-,N/A,,Overcast,30,2013-12-26 03:15:00
10:35 PM,44.6,35.6,71,30.35,7.0,NNE,11.5,-,N/A,,Overcast,30,2013-12-26 03:35:00
10:55 PM,44.6,35.6,71,30.35,7.0,NNE,10.4,-,N/A,,Overcast,20,2013-12-26 03:55:00
11:15 PM,44.6,35.6,71,30.33,7.0,NNE,9.2,-,N/A,,Mostly Cloudy,20,2013-12-26 04:15:00
11:35 PM,44.6,37.4,76,30.32,7.0,NNE,9.2,-,N/A,,Mostly Cloudy,30,2013-12-26 04:35:00
11:55 PM,44.6,37.4,76,30.32,7.0,North,8.1,-,N/A,,Overcast,10,2013-12-26 04:55:00